Regional Weather Roundup
Issued by NWS Albany, NY

Home | Current Version | Previous Version | Graphics & Text | Print | Product List | Glossary Off
Versions: 1 2 3 4 5 6 7 8 9 10 11 12 13 14 15 16 17 18 19 20 21 22 23 24 25 26 27

000
ASUS41 KALY 182210
RWRALY

NEW YORK STATE HOURLY WEATHER ROUNDUP
NATIONAL WEATHER SERVICE ALBANY NY
500 PM EST SUN FEB 18 2018

NOTE: "FAIR" INDICATES FEW OR NO CLOUDS BELOW 12,000 FEET WITH NO
SIGNIFICANT WEATHER AND/OR NO OBSTRUCTIONS TO VISIBILITY.

NYZ032-033-038>043-046>054-057>066-NYZ062>081-082-084-182300-
EAST


CITY           SKY/WX    TMP DP  RH WIND       PRES   REMARKS
ALBANY         MOCLDY    36  22  56 W7        30.40R WCI  30
GLENS FALLS    MOCLDY    37  18  46 W9        30.36R WCI  30
POUGHKEEPSIE   FAIR      41  21  44 W8        30.39R
NEWBURGH       PTCLDY    39  23  52 NW12      30.40R WCI  32
MONTGOMERY     FAIR      40  20  44 W8        30.38R WCI  34
WHITE PLAINS   FAIR      40  23  50 W9        30.38R WCI  34
ISLIP          MOCLDY    43  23  45 NW7       30.38R
NEW YORK CITY  MOCLDY    44  23  43 NW10      30.40R
CENTRAL PARK   FAIR      43  23  45 NW8       30.42R
$$

NYZ005>009-017-018-044>046-055-056-182300-
CENTRAL


CITY           SKY/WX    TMP DP  RH WIND       PRES   REMARKS
FULTON         CLOUDY    35  20  54 W5        30.37R WCI  31
SYRACUSE       MOCLDY    35  24  64 SW6       30.38R WCI  30
ROME           CLOUDY    35  23  61 W6        30.40R WCI  30
ELMIRA         FAIR      40  23  50 CALM      30.35R
BINGHAMTON     FAIR      31  18  58 CALM      30.34R
MONTICELLO     FAIR      34  19  54 NW7       30.37R WCI  28
$$

NYZ026>034-041>043-087-182300-
NORTH


CITY           SKY/WX    TMP DP  RH WIND       PRES   REMARKS
WATERTOWN      CLOUDY    33  28  81 SW10      30.36R WCI  25
FORT DRUM      NOT AVBL
OGDENSBURG     FAIR      36  25  64 SW7       30.33R WCI  30
MASSENA        FAIR      36  25  64 SW9       30.33R WCI  29
SARANAC LAKE   CLOUDY    30  19  63 W6        30.26R WCI  24
PLATTSBURGH    CLOUDY    38  15  39 CALM      30.33R
$$

NYZ001>004-010>016-019>021-085-182300-
WEST


CITY           SKY/WX    TMP DP  RH WIND       PRES   REMARKS
NIAGARA FALLS  MOCLDY    34  21  59 SW15      30.38R WCI  24
BUFFALO        MOCLDY    33  22  63 W13       30.37R WCI  24
DUNKIRK        FAIR      32  23  69 W6        30.39R WCI  26
JAMESTOWN        N/A    N/A N/A N/A MISG        N/A
WELLSVILLE     FAIR      36  20  52 SW7       30.31R WCI  30
ROCHESTER      MOCLDY    36  22  56 W8        30.37R WCI  30
PENN YAN       FAIR      36  19  50 CALM      30.36R
$$

             KEY
       WCI = WIND CHILL INDEX
       VSB = VISIBILITY
       HX  = HEAT INDEX
$$




USA.gov is the U.S. government's official web portal to all federal, state and local government web resources and services.